Theta_e
341 345 350 351 352 351 350 350 350 351 351 352 352 352 352 351 350 348 347 347 346 345 343 343 347 346 345 344 344 344 345 345 345 346 346 344 344 345 347 347 346 342 349
344 345 348 351 351 351 351 351 350 350 351 351 351 351 349 348 346 343 345 346 345 344 344 344 345 345 344 341 341 341 342 343 343 343 345 345 345 343 344 347 347 345 348
342 344 346 348 350 351 351 352 351 351 350 350 350 349 347 345 343 343 342 342 342 342 342 343 344 344 341 340 338 338 338 340 340 341 342 336 338 340 343 345 346 347 347
343 343 343 345 347 349 349 350 351 350 350 349 348 348 347 344 343 342 341 340 340 340 341 343 343 341 340 338 337 337 337 338 338 339 333 332 338 339 338 341 344 344 345
340 341 341 342 344 345 346 347 348 347 348 349 348 347 346 344 343 343 341 340 340 340 341 341 340 339 338 337 336 335 334 336 338 335 329 333 334 338 340 341 343 344 344
336 337 337 339 341 343 343 344 344 344 345 346 346 346 345 344 342 340 339 339 339 340 339 338 336 334 334 334 334 334 335 335 335 327 329 335 333 339 341 340 342 341 341
330 332 334 338 341 342 342 341 342 342 343 343 343 342 342 341 340 339 339 339 339 338 337 337 336 335 335 335 334 334 334 334 332 329 330 334 335 329 337 338 341 341 341
327 329 331 339 340 340 340 340 340 340 340 341 341 340 339 339 339 338 337 337 336 335 335 335 335 334 332 331 330 330 330 331 329 328 330 332 337 337 337 338 340 340 340
328 329 331 333 336 338 337 337 337 337 337 337 337 337 337 337 337 337 336 335 334 333 333 332 331 330 329 328 328 328 328 329 326 327 330 329 337 336 336 337 339 339 338
329 330 332 333 334 334 334 335 336 336 336 335 335 335 335 334 335 336 334 333 331 330 329 328 328 328 329 329 329 328 327 327 323 325 328 327 335 334 332 333 334 335 338
328 334 334 332 334 336 334 334 335 336 335 335 334 333 331 334 333 334 331 332 330 329 329 328 327 327 327 327 328 328 327 321 321 320 325 330 330 330 330 331 332 333 335
329 331 335 335 334 332 328 332 336 335 335 336 336 335 335 333 333 331 332 331 331 330 330 329 328 327 326 320 322 326 322 321 318 318 323 327 325 325 326 330 331 332 332
329 330 335 340 337 337 334 330 333 332 334 337 338 333 335 332 335 332 331 328 328 329 327 326 324 322 324 322 321 320 319 317 316 317 320 323 322 320 321 325 327 329 331
328 330 337 340 340 336 334 332 331 331 332 332 332 333 331 330 330 327 326 324 323 322 322 321 321 323 321 323 322 319 317 315 313 313 314 319 319 316 318 322 325 326 328
325 329 333 340 342 339 334 334 332 331 333 331 331 331 330 328 327 327 325 324 322 321 319 320 318 319 319 320 319 317 315 314 314 312 312 316 317 316 318 321 323 325 327
327 330 334 338 343 339 333 331 331 332 332 332 329 328 328 327 327 325 323 323 321 321 320 319 318 319 318 318 317 317 314 313 312 312 311 310 316 319 320 319 321 324 326
326 330 334 334 341 339 332 330 328 328 325 325 327 326 325 325 324 323 322 321 321 322 321 320 319 318 318 318 316 316 316 314 312 312 312 312 310 317 319 320 321 320 320
327 325 329 333 340 338 333 329 326 326 325 324 324 324 324 324 324 322 321 321 322 322 320 319 318 316 315 315 314 315 313 313 312 311 311 311 310 309 315 319 320 318 318
327 327 328 334 336 336 332 328 326 326 323 323 325 322 324 322 323 320 319 320 321 319 318 318 316 316 314 314 314 313 314 313 312 312 310 310 311 310 309 315 318 318 318
328 328 329 332 332 330 328 325 323 322 321 322 321 320 321 319 320 319 317 317 318 315 314 314 314 314 314 314 315 314 313 314 314 311 310 312 310 310 310 309 311 311 316
327 326 326 324 324 322 321 318 317 317 318 318 319 321 319 319 316 315 314 313 313 312 312 312 311 309 310 311 311 310 311 313 314 314 312 309 309 310 310 310 308 306 308
319 320 319 319 319 318 317 317 317 317 318 318 319 316 318 316 315 313 312 310 310 309 309 309 308 308 308 309 307 306 302 306 309 311 313 311 309 310 309 310 309 308 306
318 318 317 317 318 318 318 317 316 316 316 314 314 314 316 315 314 314 313 311 309 308 306 306 306 305 304 306 307 304 299 298 302 306 308 309 311 311 311 310 310 309 308
318 319 318 318 317 317 317 315 315 313 311 312 313 312 312 314 312 309 308 308 307 307 305 306 307 305 303 300 302 302 299 299 297 297 301 304 306 306 306 307 307 309 309
319 319 318 317 316 317 316 316 314 311 311 311 310 310 308 309 308 307 306 305 306 306 306 304 302 300 299 297 296 295 295 295 295 293 291 294 296 297 298 301 304 305 307
319 318 318 316 315 317 315 314 312 310 309 308 308 306 306 305 305 305 305 304 305 305 305 303 302 299 299 297 296 294 292 291 290 288 288 287 288 293 295 298 299 302 304
Wind_Speed
15 13 13 10 10 10 11 11 12 13 14 11 10 11 12 13 15 14 14 12 11 11 11 10 8 10 10 10 10 10 9 9 9 7 6 8 6 6 8 10 9 11 11
19 15 12 11 11 11 10 11 12 14 14 13 12 14 13 14 14 12 11 10 11 11 10 10 10 10 9 9 10 10 9 9 9 9 9 7 2 2 8 11 10 9 10
18 15 14 12 13 12 11 12 12 12 12 13 14 14 13 12 11 10 10 10 10 10 10 9 9 8 8 8 9 9 10 9 9 11 13 6 5 10 7 6 7 8 9
18 14 13 13 14 13 12 13 12 12 12 12 12 12 11 11 10 10 9 8 8 8 8 9 8 8 9 8 8 8 8 9 10 11 8 7 4 5 10 5 5 6 6
18 15 12 14 12 13 13 13 12 12 12 11 10 10 9 9 9 8 8 6 7 8 8 7 7 6 5 6 7 8 9 10 11 12 9 5 2 5 12 3 6 3 1
16 13 12 12 12 13 13 12 11 12 11 10 11 11 10 10 9 8 8 8 8 7 7 6 6 6 6 6 6 6 8 9 10 8 8 7 6 16 13 5 4 5 4
15 12 11 12 13 13 13 12 11 10 10 11 11 10 11 10 9 9 9 8 8 8 7 7 6 6 6 6 5 6 8 9 8 8 6 7 7 8 15 3 3 2 3
14 12 10 12 11 11 12 11 9 10 10 10 9 9 9 9 9 9 9 10 9 8 8 7 6 6 5 5 6 7 9 11 10 8 5 6 9 6 4 5 4 2 3
14 13 10 9 10 12 11 10 9 9 9 8 8 6 6 7 8 9 9 9 7 7 6 5 4 3 3 4 5 6 9 12 8 8 3 5 8 8 6 7 6 4 4
7 11 13 12 11 10 8 11 10 9 9 9 8 7 6 6 8 9 9 8 5 4 3 2 2 4 6 7 8 8 10 11 8 9 4 4 9 7 4 4 5 6 6
7 5 5 9 7 10 11 9 10 10 10 9 8 10 8 5 8 9 7 9 7 6 6 5 6 8 9 10 11 12 11 4 7 4 3 6 7 4 2 3 6 6 7
7 6 6 7 7 1 5 10 10 9 8 8 7 2 4 4 4 1 6 8 8 9 9 8 10 11 8 5 4 10 5 5 3 5 3 7 5 3 2 5 7 7 6
9 6 10 7 5 1 4 2 2 2 3 4 6 4 4 1 2 0 4 4 5 9 4 7 7 6 5 3 5 4 5 6 4 4 6 9 7 4 2 7 8 9 7
12 10 13 9 5 2 4 2 3 3 3 2 3 5 3 2 4 2 2 4 3 1 3 4 2 4 4 6 6 4 5 5 4 3 2 5 6 3 4 8 9 9 9
10 11 10 11 7 5 2 2 3 2 2 3 3 5 3 2 3 2 2 2 3 3 3 2 3 4 5 5 5 6 5 6 6 4 3 9 8 5 5 9 9 10 9
9 9 10 13 12 8 3 5 1 3 3 4 4 5 3 2 2 2 2 3 4 3 3 3 4 4 5 5 6 7 6 6 5 6 3 5 9 9 9 8 9 9 8
6 8 9 5 9 9 4 4 2 2 2 1 4 5 3 1 4 4 3 4 4 3 4 4 5 4 5 5 7 6 6 7 6 7 5 3 6 11 11 11 10 9 9
4 9 10 7 10 8 4 5 1 3 2 1 1 2 5 4 1 2 3 4 4 4 4 4 4 5 5 5 5 5 5 6 8 8 7 6 5 7 10 13 13 13 11
11 9 8 6 8 7 6 1 4 3 1 4 3 2 6 4 4 3 3 5 5 4 4 5 5 4 4 5 6 6 6 5 7 6 8 8 7 5 7 12 14 13 12
8 7 6 9 10 8 4 3 3 3 3 3 2 4 6 3 5 5 4 6 5 4 5 4 5 4 5 6 9 10 8 8 6 5 6 6 7 9 8 10 7 7 13
8 11 12 11 5 3 3 3 4 4 4 4 4 7 6 4 5 4 4 5 6 5 6 7 5 6 6 5 6 7 7 8 9 10 7 6 7 8 10 9 9 7 8
8 7 8 9 8 7 5 3 1 1 2 2 3 3 2 3 3 5 4 5 5 5 7 7 6 6 5 4 6 7 9 9 7 9 9 10 10 9 7 12 12 13 8
8 8 8 7 7 6 7 4 4 4 3 3 4 4 4 6 6 6 7 5 5 4 4 6 7 8 7 5 7 5 8 8 7 6 10 5 6 5 5 7 13 11 8
7 7 6 6 6 6 6 6 6 5 5 6 5 6 7 7 7 7 7 6 6 3 5 6 6 6 8 8 7 9 7 6 5 8 2 7 6 10 12 9 11 8 8
6 5 5 5 3 6 2 4 3 5 5 5 4 6 6 5 7 8 8 7 6 5 5 7 8 9 7 6 5 4 5 6 3 3 6 6 8 7 6 7 6 6 6
6 4 3 5 6 6 4 3 2 3 4 4 5 5 6 6 7 7 9 6 6 5 5 4 4 6 4 3 4 4 3 3 3 2 3 3 6 5 8 3 6 6 4
Wind_Direction
105 95 75 70 78 75 64 63 63 60 62 67 78 79 89 87 85 79 74 71 71 70 53 42 31 37 33 26 28 34 27 13 3 1 339 337 18 48 57 43 345 109 130
103 93 81 80 95 88 83 74 71 73 73 73 81 97 92 90 85 83 71 61 52 52 49 43 34 50 39 29 23 22 21 12 355 336 317 298 144 66 41 60 53 87 88
111 105 91 81 82 78 77 77 77 76 75 75 77 85 87 88 83 76 66 53 46 37 37 39 36 40 34 28 20 11 7 358 348 331 312 289 104 33 11 51 64 80 93
108 99 90 80 78 76 69 66 68 72 74 80 87 95 98 98 93 81 69 55 45 37 29 35 31 32 23 19 10 360 352 342 327 315 306 326 52 94 359 1 37 66 87
92 94 89 79 78 79 76 73 73 75 74 77 86 92 96 99 90 83 77 75 63 60 53 50 39 26 9 7 5 1 346 327 318 312 301 356 25 234 160 53 358 346 27
96 99 93 92 91 84 77 74 75 69 68 71 75 80 80 76 75 73 71 67 64 58 61 55 48 32 24 16 2 345 327 315 310 290 289 65 37 5 15 50 36 28 2
107 115 108 96 86 87 88 83 76 77 71 69 69 71 73 75 75 77 77 74 71 68 57 51 46 44 45 37 20 352 330 316 299 294 305 87 80 87 286 330 274 249 293
113 118 111 103 102 97 89 87 89 86 83 79 84 87 90 90 90 87 83 75 69 69 65 59 49 42 29 16 1 342 326 314 312 303 283 65 109 160 340 336 296 294 297
128 127 139 130 123 115 117 109 100 99 100 102 100 104 120 127 119 106 91 80 69 63 57 52 35 13 350 326 320 312 308 303 307 296 93 119 98 79 38 11 329 306 300
132 143 143 145 156 146 147 131 136 141 142 146 143 167 159 170 154 124 121 98 85 61 41 9 320 300 280 273 267 268 268 287 276 268 94 105 105 103 64 355 327 327 310
140 108 118 98 84 148 141 151 160 169 168 165 176 199 170 215 164 148 142 156 159 187 201 220 239 245 255 263 259 260 267 262 275 322 95 99 88 71 57 305 306 314 334
136 160 108 113 103 179 118 158 180 181 183 189 180 216 152 88 96 306 162 178 187 213 214 222 238 252 257 259 213 250 264 270 332 288 120 123 114 99 332 292 289 295 306
160 171 133 110 132 351 96 342 131 143 129 153 103 74 83 339 132 104 144 192 210 221 231 212 227 242 241 355 315 313 318 332 297 277 154 151 138 111 277 269 266 271 270
161 156 139 142 143 102 14 40 10 41 63 67 106 91 67 16 54 29 41 350 318 33 283 256 272 269 268 227 228 256 277 282 292 321 134 140 124 124 256 262 256 252 255
155 161 153 138 151 146 140 43 62 334 103 49 91 98 66 3 71 20 341 306 317 289 282 325 338 315 307 286 261 223 233 260 261 268 165 181 166 167 244 262 257 252 247
158 151 157 160 156 151 207 107 44 171 131 197 107 103 125 6 78 276 350 300 306 321 345 315 269 258 255 252 261 257 230 231 265 287 243 189 192 181 196 224 246 246 247
157 156 153 81 141 124 160 150 191 83 78 323 123 142 135 256 3 346 323 309 285 304 321 301 289 279 275 266 250 243 227 221 214 236 263 198 193 207 200 207 217 219 225
147 67 277 124 115 121 209 138 225 104 97 297 168 159 163 167 170 319 310 314 304 316 288 290 296 282 280 276 272 271 251 228 210 209 214 216 186 203 214 208 204 207 217
32 35 30 81 94 136 166 38 117 71 226 262 34 342 62 31 18 16 329 307 310 302 289 285 289 278 284 292 287 275 265 248 227 223 207 212 213 215 187 214 211 205 203
40 37 31 51 51 33 20 101 257 193 225 229 227 65 67 356 37 8 322 291 293 289 284 287 298 304 288 280 282 285 277 275 271 243 229 216 199 209 212 172 190 211 209
42 52 33 72 48 352 28 14 12 11 10 358 19 57 34 20 13 324 299 312 325 308 310 312 300 305 294 288 288 281 281 266 250 244 235 217 215 204 202 186 184 202 208
55 61 62 68 42 31 28 20 65 303 305 313 288 79 305 53 337 318 338 306 303 321 318 303 298 299 292 293 286 292 300 292 270 270 255 238 229 225 210 204 198 197 191
55 52 66 70 67 53 0 24 11 339 336 342 6 336 9 20 342 313 293 299 320 312 316 317 307 304 310 317 310 295 310 289 318 305 305 320 315 276 242 243 212 212 203
64 51 72 46 52 59 50 6 2 331 347 354 359 350 353 354 326 348 334 331 326 338 312 292 342 16 11 354 348 12 6 342 320 308 303 324 330 19 9 6 356 1 340
69 59 26 347 114 125 70 23 2 12 345 333 332 335 339 356 349 346 338 340 338 330 312 50 34 30 24 2 352 334 327 324 81 339 312 358 338 5 5 346 351 358 11
131 114 17 330 6 18 55 26 355 316 303 339 330 340 6 349 347 337 332 335 313 336 32 44 69 56 26 334 331 319 334 320 327 345 313 332 320 314 327 341 338 346 8